Home   Weather   Kenora   Past weeks

Flag for Canada Past Weather in Kenora, Ontario, Canada — Yesterday and Last 2 Weeks

Now
54 °F

Sprinkles. Overcast.


Feels Like: 50 °F
Forecast: 48 / 51 °F
Wind: 12 mph from Northwest

Location: Kenora

Current Time: Sep 25, 2016 at 9:07:51 PM

Latest Report: Sep 25, 2016 at 8:00 PM


Visibility: 3 mi

Pressure: 29.66 "Hg

Humidity: 94%

Dew Point: 52 °F

Location of KenoraLocation

Past Weather in Kenora — Graph

°F

Kenora Temperature Yesterday

Maximum temperature yesterday: 63 °F (at 6:00 PM)
Minimum temperature yesterday: 52 °F (at 5:00 AM)
Average temperature yesterday: 57 °F

High & Low Weather Summary for the Past Weeks

 TemperatureHumidityPressure
High72 °F (Sep 11, 4:00 PM)100% (Sep 12, 7:00 AM)30.35 "Hg (Sep 12, 7:00 AM)
Low41 °F (Sep 14, 5:00 AM)37% (Sep 20, 5:00 PM)29.54 "Hg (Sep 18, 10:00 PM)
Average56 °F80%29.98 "Hg
* Reported Sep 10 7:00 PM — Sep 25 7:00 PM, Kenora, Weather by CustomWeather, © 2016

Note: Actual official high and low records may vary slightly from our data, if they occured in-between our weather recording intervals... More about our weather records

Advertising

Kenora Weather History for the Previous 24 Hours

Scroll right to see more
 ConditionsComfort  
Time TempWeatherWind HumidityBarometerVisibility
7:00 PM
Sun, Sep 25
54 °FSprinkles. Overcast.14 mph100%29.64 "Hg3 mi
6:00 PM55 °FSprinkles. Overcast.10 mph94%29.62 "Hg2 mi
5:50 PM55 °FSprinkles. Overcast.12 mph94%29.62 "Hg2 mi
5:00 PM57 °FBroken clouds.14 mph82%29.62 "Hg15 mi
4:00 PM59 °FBroken clouds.16 mph77%29.62 "Hg15 mi
3:00 PM61 °FBroken clouds.14 mph72%29.62 "Hg15 mi
2:00 PM63 °FBroken clouds.10 mph77%29.62 "Hg15 mi
1:00 PM61 °FSprinkles. Broken clouds.18 mph94%29.63 "Hg12 mi
12:53 PM64 °FSprinkles. Fog.10 mph88%29.62 "Hg5 mi
12:00 PM64 °FBroken clouds.8 mph88%29.64 "Hg15 mi
11:00 AM63 °FBroken clouds.6 mph94%29.66 "Hg12 mi
10:00 AM61 °FBroken clouds.7 mph100%29.68 "Hg12 mi
9:00 AM61 °FCloudy.10 mph94%29.69 "Hg12 mi
8:00 AM61 °FLight rain. Fog.9 mph100%29.72 "Hg3 mi
7:49 AM61 °FLight rain. Fog.9 mph100%29.72 "Hg3 mi
7:00 AM63 °FDrizzle. Fog.9 mph94%29.75 "Hg3 mi
6:00 AM63 °FDrizzle. Fog.10 mph94%29.77 "Hg3 mi
5:00 AM63 °FDrizzle. Fog.13 mph94%29.79 "Hg3 mi
4:47 AM63 °FDrizzle. Low clouds.13 mph94%29.80 "Hg2 mi
4:00 AM61 °FFog.12 mph100%29.80 "Hg3 mi
3:00 AM61 °FFog.13 mph100%29.83 "Hg3 mi
2:00 AM61 °FFog.14 mph100%29.86 "Hg3 mi
1:00 AM61 °FLight rain. Low clouds.15 mph94%29.87 "Hg8 mi
12:00 AM61 °FLight rain. Low clouds.12 mph100%29.89 "Hg12 mi
11:00 PM
Sat, Sep 24
63 °FLight rain. Low clouds.14 mph88%29.92 "Hg15 mi
10:00 PM63 °FLow clouds.15 mph94%29.93 "Hg15 mi
9:00 PM63 °FOvercast.15 mph94%29.96 "Hg15 mi
Weather by CustomWeather, © 2016

See weather overviewHow to use our weather pages